Wind_Speed
26 26 26 27 28 28 29 28 28 28 28 27 26 18 6 1 5 18 24 32 29 10 4 6 5 3 8 10 8 8 6 6 7 6 6 4 2 3 3 3 4 3 3 5 7 7 5 1 0 4 7 7 9 12 16 16 14 10 7 6 9 8 3 3 6 7 9 15 14 11 12 13 11 8 7 8 9 9 8 6 6 6 6 5 2 3 7
25 26 26 27 27 28 28 27 27 26 25 25 21 10 2 2 5 9 17 29 23 6 4 6 4 5 10 10 12 13 8 8 10 8 6 4 1 1 2 2 2 2 3 4 7 8 3 1 1 5 6 6 9 11 13 15 12 7 6 7 6 5 3 4 6 5 5 7 6 7 8 10 9 8 9 11 13 11 6 4 5 5 7 8 5 4 7
25 25 25 26 26 26 27 27 26 25 23 22 18 7 3 4 2 3 11 21 14 6 4 5 3 7 11 10 11 12 9 9 11 10 6 4 3 1 1 2 2 3 3 3 5 5 0 1 2 3 5 6 7 9 12 15 11 9 12 11 6 4 3 3 3 3 4 5 4 2 2 4 6 11 15 14 14 14 7 5 5 6 6 7 6 6 8
24 24 24 24 24 25 26 26 25 24 21 20 18 9 3 3 2 2 6 9 5 4 4 5 4 6 8 7 8 10 10 8 9 10 7 8 9 2 2 2 3 4 5 3 4 5 3 2 3 4 6 6 5 8 12 13 12 11 12 11 5 2 4 5 6 8 8 7 10 10 8 8 9 13 19 16 13 14 10 5 5 6 6 5 7 10 9
24 24 23 23 23 23 24 24 24 22 19 19 17 8 2 1 2 3 4 3 4 5 5 6 6 6 6 4 5 9 10 8 7 7 5 7 9 3 1 3 4 4 5 4 4 6 7 6 5 5 6 5 6 10 12 11 10 9 9 9 5 2 4 7 9 12 14 16 20 21 15 13 15 14 18 18 14 14 12 8 7 7 7 5 9 11 9
24 23 23 23 22 22 22 22 22 19 17 18 13 4 2 2 1 2 2 2 4 5 6 8 8 8 7 4 4 8 9 8 8 5 4 6 6 3 2 3 5 5 4 3 4 6 7 7 5 4 4 6 7 8 8 7 8 11 9 8 5 2 4 8 9 15 20 20 21 20 16 14 16 16 19 20 16 16 14 9 9 9 8 8 10 11 11
23 23 23 22 21 21 20 20 19 17 16 16 10 2 1 2 1 1 2 1 3 5 8 10 9 9 7 3 4 7 8 10 10 7 6 6 4 3 3 4 6 6 3 3 4 4 4 6 6 4 4 6 6 5 5 3 7 11 9 7 5 2 4 7 11 17 21 19 16 14 12 11 11 12 20 21 16 17 14 8 9 9 8 9 10 11 10
23 23 22 22 21 20 19 18 17 16 16 13 5 2 1 1 0 1 1 1 4 4 5 6 6 6 6 3 3 6 8 10 11 9 6 5 5 6 6 7 7 6 3 3 5 5 5 8 9 7 6 6 2 1 2 4 7 9 8 6 5 2 4 9 11 12 14 13 11 11 10 9 8 5 14 22 18 15 13 10 8 7 7 7 8 9 7
23 23 22 21 20 20 19 17 16 16 16 11 3 3 3 2 2 2 1 2 3 3 3 3 4 4 3 2 3 6 8 10 11 9 5 4 6 7 7 8 6 4 4 5 6 6 7 10 11 11 10 7 2 3 2 4 7 8 6 6 6 3 4 7 8 7 8 9 13 16 15 9 6 12 4 12 17 12 10 8 4 2 5 5 6 6 6
23 23 22 22 20 19 18 17 15 15 14 11 4 3 2 3 3 4 1 2 2 2 2 2 3 3 2 4 6 7 8 9 9 6 4 5 8 7 6 7 5 4 5 6 6 7 9 11 10 9 11 11 6 5 6 7 7 5 5 6 6 4 4 5 6 5 7 10 16 17 13 5 5 9 13 10 3 6 5 4 7 7 1 3 4 6 6
24 23 22 21 20 19 18 17 15 13 12 11 7 5 5 6 4 3 1 2 2 1 1 2 2 3 5 8 8 8 10 9 7 3 4 8 10 7 5 6 5 3 5 6 6 8 10 11 10 9 10 12 11 8 9 11 11 8 6 6 6 6 5 5 4 3 7 13 17 12 5 4 1 1 11 16 9 15 15 9 11 14 10 4 2 3 2
23 22 21 21 19 19 18 16 15 13 12 12 11 11 12 11 6 3 2 2 2 1 1 3 3 5 8 9 9 9 9 8 7 6 8 10 10 6 5 5 4 4 6 7 7 8 9 9 9 10 10 11 12 10 10 13 13 10 8 8 8 8 6 4 3 3 6 10 9 4 1 1 2 1 10 15 11 13 17 17 17 18 16 13 8 6 5
22 21 21 20 19 18 17 15 15 14 12 12 12 13 14 12 7 2 2 2 2 2 3 5 6 8 10 9 9 10 8 7 7 9 9 9 9 7 4 3 5 7 8 9 9 8 7 6 6 7 8 8 8 10 12 15 15 13 11 11 11 10 6 3 4 4 3 5 4 0 5 4 5 7 12 17 15 12 14 18 17 18 17 14 11 8 6
22 21 20 20 18 18 17 16 15 14 12 12 12 13 14 12 8 2 3 2 3 3 3 4 5 7 8 8 8 7 7 7 7 7 7 7 8 8 5 6 10 10 7 6 6 4 4 4 3 3 4 3 3 5 9 11 14 15 15 13 12 10 6 3 3 3 1 3 3 3 4 5 7 9 12 12 10 11 8 8 10 15 16 13 11 10 8
22 21 20 19 18 18 17 16 15 14 13 12 12 13 13 13 10 5 4 2 3 2 2 4 5 5 6 6 6 5 5 4 4 6 7 6 6 7 6 9 14 12 5 3 4 3 2 2 2 3 3 2 1 2 4 4 8 13 16 14 12 10 6 3 3 3 4 4 3 3 3 3 5 11 16 13 7 9 8 2 8 14 16 14 13 11 10
21 21 19 19 19 17 16 16 15 14 13 13 13 13 13 12 10 8 4 2 1 2 2 5 6 4 5 5 5 5 4 3 3 4 5 4 6 8 7 10 13 9 4 4 3 2 2 1 2 3 2 2 3 2 3 3 2 6 12 14 13 10 6 3 2 3 4 4 3 3 1 1 7 16 20 18 13 10 7 3 8 12 15 15 13 13 11
21 21 20 19 18 17 17 16 15 14 13 12 12 13 14 11 9 9 5 3 2 2 1 3 4 2 3 3 3 3 3 1 1 1 3 4 6 8 8 8 9 6 4 4 2 2 2 2 2 2 2 3 4 3 3 4 4 2 4 9 8 7 4 2 2 3 5 4 2 1 0 1 10 18 19 20 18 9 2 6 5 8 13 13 12 13 13
20 20 20 19 18 18 17 16 15 14 13 12 11 11 13 11 9 9 5 2 2 3 3 5 6 3 2 3 3 3 2 1 1 1 3 3 4 7 8 6 5 4 4 3 2 2 2 2 2 2 2 3 4 3 3 4 3 4 2 3 3 2 2 2 2 3 5 4 2 1 0 3 12 18 20 20 13 3 6 6 1 6 10 11 10 11 12
21 20 20 20 19 18 16 15 14 13 12 11 10 9 9 8 7 9 6 2 1 2 2 4 6 4 4 4 4 4 2 0 1 1 3 2 3 7 8 4 2 3 4 3 2 2 3 2 2 2 2 3 3 2 3 4 4 5 5 2 2 2 2 2 2 3 3 3 2 1 1 4 13 19 19 14 5 5 5 3 1 6 9 9 10 11 10
21 21 20 20 18 17 16 14 13 12 11 10 8 7 8 7 6 9 9 4 2 3 4 6 8 9 7 5 5 5 3 1 2 2 2 2 4 6 5 3 3 3 3 3 3 2 2 3 3 3 2 3 3 3 3 3 3 6 6 3 3 3 2 2 2 2 2 2 2 3 1 5 14 16 13 10 8 5 3 3 4 8 10 9 10 11 11
21 21 20 19 17 16 15 14 13 12 11 9 7 6 6 6 4 7 11 9 3 1 3 5 6 8 9 8 10 10 8 6 5 4 3 3 4 3 3 2 3 2 1 2 3 2 2 2 3 3 2 2 2 3 4 4 3 6 6 2 4 4 3 1 2 2 2 2 3 3 1 3 9 9 6 6 6 4 3 5 6 8 10 8 9 10 12
21 20 19 18 17 16 15 14 13 12 10 8 6 5 4 4 4 4 8 11 9 5 7 10 12 16 19 20 21 21 20 18 15 10 5 3 3 2 2 2 3 2 1 1 1 1 2 2 2 3 3 2 2 3 5 3 2 6 8 3 3 4 2 2 3 2 1 1 2 2 1 2 3 5 5 7 8 8 7 8 8 7 8 7 8 10 12
20 20 19 18 17 16 15 14 13 11 9 7 5 4 5 5 5 4 5 9 8 8 13 17 18 18 19 19 19 21 24 25 24 19 13 6 2 3 3 3 2 2 2 2 2 1 2 2 2 2 2 2 3 3 4 3 2 5 7 4 3 6 4 1 2 3 2 1 3 7 6 4 6 6 6 8 9 7 7 8 8 6 7 7 9 9 10
20 19 18 17 16 14 13 12 11 10 8 5 3 5 5 5 5 3 4 4 1 3 7 8 6 6 9 12 14 14 18 22 23 24 21 14 4 2 2 3 3 1 2 4 4 2 1 2 2 2 2 3 4 3 3 3 2 4 6 4 4 6 6 4 4 6 4 1 6 11 9 6 7 7 8 10 10 8 7 7 5 3 5 7 9 10 10
20 19 17 16 14 13 12 10 8 7 6 3 3 4 4 4 4 4 5 2 0 1 2 3 4 7 10 13 15 15 16 18 21 23 23 19 12 7 5 5 5 4 4 4 3 1 2 2 1 2 3 3 5 3 3 3 3 4 4 3 4 6 7 6 6 7 5 1 6 12 8 1 4 6 6 7 9 9 9 7 3 2 4 6 7 8 8
19 17 15 14 13 12 11 8 5 2 1 3 4 5 5 3 2 5 6 3 1 1 1 2 5 11 15 14 13 12 11 12 13 18 22 23 23 18 9 4 4 4 4 2 1 1 2 2 2 3 2 3 4 3 3 4 5 4 2 2 5 6 7 6 7 7 4 1 8 14 11 5 2 4 5 4 6 8 10 11 8 5 4 5 6 6 5
18 15 13 12 12 11 9 7 6 5 5 5 5 5 5 2 2 5 6 1 1 0 1 2 4 12 16 14 14 11 6 6 5 7 14 13 11 5 3 5 3 4 4 3 3 3 1 2 3 3 2 3 3 3 3 4 5 3 1 3 6 6 6 6 6 5 3 3 7 9 7 6 9 10 7 6 6 7 9 10 10 10 7 5 5 5 4
15 12 10 9 10 9 9 9 9 8 7 6 6 4 3 1 2 4 4 1 1 1 1 3 5 9 12 11 14 16 11 10 12 9 9 10 13 14 13 8 3 3 4 3 3 3 2 3 3 2 2 2 2 3 3 3 3 2 2 4 5 5 5 6 5 5 7 7 7 6 5 6 11 12 10 8 6 5 8 9 9 10 10 6 5 6 6
10 8 7 7 8 8 8 8 7 7 6 5 4 2 1 1 0 2 4 3 4 2 2 3 4 5 6 8 10 16 17 16 16 15 15 16 16 14 11 7 4 3 2 2 3 2 2 3 2 2 2 2 3 3 3 3 3 3 3 5 7 7 7 7 6 8 10 9 7 7 9 11 13 13 13 11 6 5 8 9 7 7 8 6 6 6 7
6 6 5 6 6 6 6 5 5 4 3 1 0 1 1 1 1 1 4 4 4 2 1 2 2 3 5 5 7 11 13 12 11 11 11 10 8 8 8 6 3 3 2 2 2 1 1 2 3 3 4 5 3 2 2 4 3 3 3 9 12 12 12 10 8 9 10 9 9 10 12 14 13 13 13 12 9 7 8 8 5 5 5 4 5 6 6
3 4 5 6 5 4 3 4 4 4 4 2 2 1 1 0 1 1 3 3 3 1 0 1 2 3 4 3 5 8 10 9 9 7 6 6 6 7 8 6 3 3 3 1 1 1 1 2 3 3 5 6 4 2 3 5 4 5 9 14 14 13 14 13 12 12 12 12 11 12 15 14 11 10 12 10 9 9 7 5 4 5 4 5 5 4 4
3 4 5 5 4 2 2 2 3 4 5 4 2 2 2 2 2 3 4 3 2 1 0 1 2 2 2 1 2 6 7 6 5 4 5 5 5 5 7 5 2 2 2 2 2 1 1 2 2 3 3 5 4 3 3 4 5 9 16 17 14 13 14 15 15 14 13 12 10 12 15 12 8 9 10 8 5 6 4 3 4 6 6 6 6 5 5
3 4 5 4 3 1 0 1 1 2 4 5 5 5 4 3 2 3 3 2 2 2 1 1 1 2 2 2 2 6 6 4 2 2 4 5 3 2 4 3 1 2 5 3 2 0 1 1 1 2 2 1 2 2 1 3 7 13 17 16 13 13 15 15 16 14 13 11 9 11 15 12 6 7 8 7 5 6 6 5 6 6 6 5 4 4 5
4 3 3 3 2 1 2 3 3 3 3 1 2 3 4 3 2 2 2 1 2 2 1 1 1 2 3 1 2 4 4 2 2 2 2 4 4 2 1 2 2 2 3 1 0 1 1 1 1 1 1 1 1 1 1 6 10 13 14 13 12 14 15 15 15 14 13 11 10 13 15 14 9 7 8 8 8 9 9 8 7 6 6 5 5 4 4
3 3 3 3 3 3 5 7 8 7 4 3 3 3 3 2 2 2 2 2 2 1 1 1 1 1 3 2 2 4 2 1 1 2 1 2 4 2 1 2 2 2 1 1 1 2 2 2 2 2 2 2 1 1 3 9 13 13 12 11 12 14 16 17 17 17 16 13 11 11 10 10 11 10 8 8 9 9 9 8 7 6 6 6 5 5 4
3 4 5 4 4 6 7 7 6 4 2 3 3 4 3 1 3 3 1 1 1 1 1 1 1 0 1 1 2 3 3 1 1 1 1 0 2 2 1 2 2 1 1 2 2 2 2 3 2 2 3 4 3 2 5 9 13 15 15 13 12 13 15 17 19 19 18 14 10 9 8 9 11 10 6 6 8 8 8 9 8 7 7 6 5 5 4
4 3 5 5 5 5 4 3 2 3 2 2 3 5 3 2 3 3 2 2 1 1 1 1 1 2 1 1 1 2 2 1 0 1 1 0 0 1 1 1 1 0 1 2 2 1 1 2 2 2 3 3 3 5 7 8 11 14 15 14 13 13 14 17 19 19 18 16 13 7 7 8 8 7 5 6 7 7 8 9 8 7 7 7 6 5 5
5 3 4 3 2 2 1 2 3 3 2 1 3 4 2 1 1 1 1 1 0 1 1 2 1 2 2 1 1 1 0 1 1 1 0 1 0 1 1 0 1 1 1 2 1 0 1 2 2 1 3 4 5 5 5 6 8 10 11 11 12 13 14 16 18 19 17 16 15 11 6 6 8 6 5 5 6 6 7 8 7 6 7 7 6 5 5
4 2 1 1 1 1 1 1 3 4 3 2 2 2 0 1 1 1 1 0 0 1 0 1 2 2 3 1 2 1 1 0 1 1 1 0 0 0 0 0 1 0 1 1 1 2 2 2 1 1 3 5 7 7 6 5 6 8 9 9 10 12 13 14 16 17 16 14 14 14 11 7 6 5 4 5 6 6 6 6 6 6 6 6 6 6 5
4 3 2 1 1 2 1 3 5 4 2 1 0 0 0 0 0 1 1 1 1 1 1 1 2 2 3 3 1 1 0 1 1 1 1 1 0 1 1 0 0 1 2 2 1 2 2 1 1 2 4 5 7 8 7 5 6 7 8 8 9 11 12 13 15 17 17 16 15 15 15 14 12 9 6 4 4 5 6 7 7 7 6 6 7 7 7
4 2 2 1 2 2 2 5 5 3 1 0 0 1 0 0 1 1 1 1 2 2 2 1 1 2 1 2 2 2 1 0 0 1 1 1 1 1 1 0 0 2 1 2 2 2 2 1 1 2 4 5 7 8 7 5 6 7 8 9 9 10 12 13 16 18 19 17 15 15 16 17 16 13 10 9 6 3 3 4 5 5 6 7 8 8 8
9 9 8 7 5 3 3 3 3 2 0 1 1 1 1 0 1 1 0 0 1 2 1 1 1 2 1 2 2 1 1 1 1 1 0 1 0 1 1 1 1 2 1 3 1 2 2 1 1 2 4 6 8 8 7 6 6 7 8 9 9 10 11 12 14 18 20 17 14 14 16 18 17 15 14 13 10 8 7 5 2 1 0 3 7 8 8
9 9 8 6 3 3 2 1 1 1 1 1 1 2 2 2 1 1 1 1 1 1 1 2 1 0 1 1 1 0 1 1 1 1 0 1 0 1 1 1 1 1 1 1 1 2 1 1 2 3 5 6 7 7 8 7 5 5 7 9 10 12 14 13 13 17 20 20 18 18 19 19 20 21 23 21 16 12 11 10 8 9 9 8 6 5 8
2 1 1 1 1 1 1 1 1 1 2 2 1 2 3 3 2 2 2 2 1 1 2 2 1 1 1 1 1 1 0 0 1 1 1 1 0 1 1 0 0 1 0 1 2 1 1 1 2 3 5 6 6 7 8 8 6 4 6 9 11 13 14 14 13 14 16 18 19 21 21 22 23 25 27 25 21 16 13 12 12 16 18 18 16 14 12
1 1 2 2 2 1 1 1 2 1 2 2 1 1 2 2 2 3 3 1 2 2 3 3 3 3 2 2 1 1 0 0 1 0 1 0 1 1 0 0 0 0 1 1 1 1 1 2 2 3 5 6 7 8 8 8 6 5 5 7 10 11 11 11 12 11 11 13 17 18 19 20 21 22 23 26 27 25 21 17 16 20 23 23 21 21 20
1 1 2 2 2 2 1 1 2 2 1 1 1 2 3 3 3 4 3 1 2 4 6 3 4 4 2 2 0 0 0 1 1 1 1 1 1 1 1 1 2 2 2 1 1 2 2 3 3 4 5 6 7 7 8 8 7 5 5 6 8 9 9 10 10 10 11 14 17 17 17 18 19 19 21 26 30 31 29 26 24 25 27 25 23 24 26
1 1 2 2 2 2 1 1 1 0 1 0 2 4 4 3 3 4 4 2 3 5 5 2 2 2 2 1 1 0 0 1 1 1 1 2 1 1 1 2 2 1 1 2 2 1 2 3 4 4 5 5 6 7 8 8 8 6 5 5 6 7 8 8 9 10 12 14 15 15 16 18 20 20 20 23 27 30 31 31 30 30 31 29 28 28 29
1 1 2 2 1 1 1 0 0 1 1 1 2 3 4 3 3 5 5 4 4 5 5 3 2 2 1 1 1 1 0 0 1 2 2 2 2 1 2 2 1 1 1 2 2 1 1 3 4 4 4 5 6 6 7 8 9 8 6 5 5 6 7 7 8 10 12 13 13 13 15 17 19 19 19 20 23 27 31 31 31 31 32 32 33 32 31
1 0 1 1 1 1 2 2 2 2 3 2 2 3 4 4 4 5 5 4 4 4 4 2 2 2 1 1 2 2 1 1 1 1 2 2 2 2 1 1 1 2 2 2 1 1 2 3 4 4 4 5 5 6 6 7 9 9 7 5 5 6 7 7 8 9 11 11 12 13 15 17 17 18 19 18 18 21 27 30 30 30 30 31 33 32 30
1 0 1 0 1 1 1 2 4 3 4 4 4 3 4 4 5 5 4 4 4 4 3 3 3 2 1 2 2 2 2 1 2 2 2 2 1 1 1 1 1 2 2 2 1 1 2 3 3 3 4 5 5 6 7 7 7 8 9 8 6 6 7 9 9 9 10 11 11 13 15 15 16 16 17 17 17 20 24 27 28 28 28 29 31 31 29
2 1 1 1 1 2 1 2 2 0 1 2 2 2 2 2 4 6 5 3 3 4 4 3 1 2 3 3 2 1 1 1 3 2 1 0 0 1 0 1 2 2 3 2 2 2 3 3 2 3 4 5 5 5 7 8 8 10 11 11 8 6 6 8 9 9 9 9 10 11 12 13 14 14 16 18 19 20 20 21 23 25 25 26 28 28 27
0 1 2 2 1 1 2 3 2 2 2 2 3 2 1 1 4 6 4 4 4 3 2 2 1 3 3 1 1 1 1 2 2 2 1 0 0 1 3 3 3 3 3 3 3 3 3 2 2 2 3 4 5 5 7 8 10 11 14 14 11 8 7 7 8 9 10 9 9 10 11 11 12 12 13 14 15 14 12 14 18 21 22 23 24 25 25
Wind_Direction
337 339 339 339 342 344 345 347 347 351 358 358 354 347 327 355 301 302 329 349 344 344 89 8 359 19 346 347 357 351 344 350 7 24 21 22 67 56 31 18 19 14 345 328 325 329 336 11 292 291 298 303 311 334 347 344 344 341 325 331 329 316 331 317 294 294 272 267 277 269 229 207 202 201 184 184 194 185 177 185 175 179 206 207 195 246 270
337 338 338 340 343 344 344 346 347 352 0 358 351 344 289 279 280 291 335 350 351 20 63 358 351 357 352 358 0 351 348 0 3 356 355 8 71 77 46 39 24 331 320 347 342 339 351 129 304 305 294 299 319 332 340 338 336 329 319 324 322 320 354 353 323 311 279 262 271 279 246 211 204 202 190 192 197 186 157 141 159 189 205 189 178 231 254
336 336 337 340 343 343 343 344 346 353 360 357 349 334 265 301 269 245 337 349 3 55 38 356 352 356 359 4 0 354 348 351 348 341 348 11 10 35 127 48 11 324 342 10 342 333 226 186 307 293 288 301 313 324 330 327 318 297 297 305 306 301 302 300 303 284 244 228 226 248 280 252 227 203 197 197 190 182 166 130 159 202 210 185 178 222 258
335 335 337 339 340 341 341 341 345 352 360 357 345 325 284 323 322 311 336 344 11 43 19 12 5 2 6 359 351 349 338 334 346 349 4 10 355 346 147 51 11 329 338 343 315 317 304 299 300 279 293 306 299 314 320 312 305 302 310 325 329 285 275 254 243 252 259 270 275 283 310 306 269 218 199 193 185 184 176 144 167 189 181 186 210 223 251
334 334 335 336 337 338 338 340 345 353 359 356 344 318 266 324 339 353 344 324 350 3 9 15 1 350 355 338 322 333 326 326 349 355 357 355 349 349 89 29 1 321 329 335 314 318 314 302 285 277 294 299 292 308 306 295 310 335 347 346 331 284 291 273 253 261 271 277 279 282 289 284 274 248 206 189 182 183 182 183 185 162 149 200 237 227 229
332 333 333 333 334 335 338 341 346 352 356 354 350 326 273 333 9 35 8 312 349 350 333 337 336 330 338 328 295 315 326 336 346 343 336 345 355 8 0 353 339 317 328 339 313 317 319 305 294 287 293 300 306 312 292 286 352 7 355 335 328 303 278 279 291 297 291 282 275 272 266 259 268 255 211 190 185 187 189 199 185 154 157 203 228 221 209
330 330 330 330 331 333 336 340 344 346 347 347 349 325 285 336 328 29 50 356 317 303 294 307 318 323 332 326 305 329 345 348 342 343 348 340 337 341 320 326 334 322 328 344 310 313 320 302 298 291 279 295 317 331 302 299 9 4 342 330 341 312 267 291 314 308 295 286 279 274 265 264 284 254 200 185 191 193 184 190 190 173 180 198 204 207 209
327 328 328 327 329 329 331 335 337 337 337 338 334 244 262 20 61 336 35 290 280 274 278 302 317 319 318 309 324 345 349 346 342 341 341 323 317 330 325 324 327 315 317 322 292 287 290 290 297 299 289 291 300 344 312 301 328 338 335 328 333 320 294 312 322 310 293 292 314 332 310 283 310 302 192 185 192 196 185 184 191 192 201 189 172 185 219
326 327 326 325 326 326 325 328 330 331 331 328 299 229 267 264 185 190 267 280 281 279 283 306 308 302 305 314 336 341 337 343 342 328 307 304 316 320 316 315 312 301 306 296 278 281 285 288 298 304 300 295 252 159 182 266 304 325 329 314 311 310 299 309 327 320 291 304 336 337 312 289 1 18 340 205 194 190 186 169 141 201 214 157 127 161 218
325 325 324 323 323 322 322 323 323 324 324 316 287 216 244 259 196 170 202 280 276 276 281 281 286 291 308 316 324 323 317 331 344 330 306 313 311 299 298 307 308 305 300 284 277 289 289 286 290 292 288 283 261 207 196 225 255 278 299 302 296 285 288 312 336 319 287 313 328 318 307 326 38 18 346 310 224 127 113 92 42 13 3 136 159 193 211
324 323 322 322 322 320 319 320 318 316 314 308 294 272 276 283 257 181 180 269 237 197 258 269 265 288 304 311 316 311 306 320 343 332 294 302 303 299 306 316 318 298 277 274 283 287 281 280 279 272 269 272 267 239 206 216 233 239 252 278 281 276 282 300 323 303 289 311 319 312 329 38 80 350 359 353 26 84 88 64 24 16 13 353 258 182 169
323 323 323 323 322 321 319 317 316 312 304 300 294 285 286 286 270 201 161 254 254 187 245 249 241 273 294 299 298 296 301 310 314 298 287 293 300 308 318 321 322 294 276 283 297 297 290 286 279 270 265 264 266 253 222 221 230 231 229 245 265 275 281 285 282 268 283 307 325 331 157 200 249 328 13 6 23 74 76 56 29 14 7 355 355 37 42
324 323 323 322 321 320 318 314 312 310 306 302 291 284 287 285 268 198 145 228 250 228 258 266 257 266 279 285 286 295 306 307 308 307 302 301 309 313 306 302 304 297 291 295 301 304 305 296 284 279 274 265 259 251 236 232 233 232 228 232 248 261 270 284 274 258 281 325 350 220 217 269 337 8 6 4 5 12 39 51 31 8 7 2 357 22 45
324 323 322 321 320 318 315 313 312 311 307 302 292 287 288 281 262 197 135 220 247 225 242 275 274 267 278 292 299 309 315 311 317 320 309 308 316 314 315 325 316 304 297 302 306 309 308 299 300 300 287 272 254 243 239 235 232 231 230 230 239 247 253 279 275 263 328 343 316 272 266 312 357 3 345 346 349 333 349 56 37 7 9 5 358 19 34
323 323 322 320 320 317 314 313 313 310 305 299 294 289 285 281 271 239 167 176 265 251 216 238 263 286 304 310 314 319 313 311 323 317 301 299 308 309 318 329 323 316 318 343 333 315 305 307 322 321 307 315 331 272 257 246 227 222 222 226 235 235 227 248 277 295 347 347 312 321 341 337 347 332 316 310 304 291 285 85 47 9 1 1 6 17 27
323 323 321 319 318 316 315 312 309 306 303 298 293 287 285 285 275 247 197 143 239 252 210 216 238 279 300 297 301 301 297 302 312 310 309 315 316 315 321 329 330 337 6 10 342 314 325 340 301 295 297 312 312 292 301 325 287 209 202 211 230 236 224 236 270 272 309 324 302 314 21 57 333 321 312 313 317 290 251 111 47 0 347 356 10 14 23
324 323 321 320 318 316 315 313 309 308 304 297 293 286 283 287 273 242 209 137 200 242 271 231 233 275 291 283 293 279 261 277 301 289 307 314 314 318 325 331 337 356 30 24 3 340 327 302 281 282 273 298 306 298 311 336 349 9 171 192 224 250 240 237 262 262 281 291 282 296 97 332 322 318 312 312 313 298 166 95 47 341 335 347 10 21 24
325 324 322 322 321 319 317 315 312 310 305 299 297 286 280 286 274 243 214 146 206 247 256 239 231 234 240 254 283 282 264 285 118 241 284 293 303 314 325 335 338 345 9 16 12 354 325 287 289 297 283 311 322 321 331 340 346 354 20 147 185 280 285 259 257 266 277 277 270 277 133 325 323 320 314 308 306 338 75 79 42 316 330 345 9 27 32
326 326 325 324 323 321 318 316 313 310 305 301 299 288 283 288 265 234 212 159 204 240 235 218 213 220 247 262 276 284 282 207 135 239 299 299 292 305 316 339 347 324 342 355 351 337 323 317 316 299 293 330 343 349 348 342 350 357 1 41 79 13 334 317 297 283 279 270 276 285 163 336 331 325 319 321 347 68 59 54 338 322 333 354 13 24 34
328 328 326 325 324 323 321 319 317 313 310 307 301 289 286 289 266 234 221 206 220 254 258 253 242 243 253 259 259 268 278 249 171 191 253 267 292 317 334 353 333 324 337 347 353 357 333 327 326 316 323 333 330 350 352 331 348 2 356 10 42 25 342 327 321 311 312 329 9 28 45 321 331 334 339 360 39 64 13 20 22 346 345 4 18 23 29
330 328 327 327 327 325 323 321 319 316 313 312 307 295 291 294 276 242 232 230 236 281 274 269 258 254 257 261 261 263 262 249 229 216 223 252 277 323 357 327 309 331 8 327 334 353 328 317 316 312 315 310 310 348 347 325 340 351 340 356 46 32 18 333 304 324 359 5 21 42 148 282 332 349 1 15 44 67 38 35 32 359 348 2 18 24 25
331 330 329 330 328 326 323 321 318 315 312 312 304 288 280 283 292 278 244 232 229 246 269 277 283 281 278 274 268 259 253 250 246 241 240 258 278 272 251 270 271 214 164 276 301 311 302 299 305 304 303 314 330 351 347 341 5 350 342 1 34 2 333 231 250 290 332 302 339 355 223 207 14 20 13 8 26 45 44 44 40 8 346 354 11 20 22
332 331 331 330 328 327 323 319 317 314 312 313 296 268 266 277 289 295 244 228 232 257 266 271 282 286 280 275 268 255 247 248 250 248 243 240 280 283 235 226 251 208 167 185 201 235 278 258 263 286 294 322 337 346 348 0 34 349 343 353 338 322 314 260 293 313 296 287 7 3 6 50 56 40 22 15 17 23 35 49 48 8 344 358 7 7 13
333 332 332 331 329 327 324 319 315 311 311 313 285 264 267 279 283 263 214 212 253 295 275 272 275 269 272 288 292 272 251 246 246 243 236 225 218 307 275 231 228 225 242 231 206 190 289 270 262 289 303 335 351 357 351 353 359 341 340 340 323 332 356 19 355 334 318 8 30 12 8 48 62 41 22 11 3 3 22 48 60 12 359 14 6 355 1
334 334 333 333 331 330 328 322 312 302 294 270 237 239 242 263 272 219 194 199 207 234 296 302 251 262 292 308 302 282 264 259 249 236 230 221 209 214 248 248 237 246 263 246 190 147 299 281 276 292 306 0 9 354 332 334 331 327 335 336 327 347 18 24 352 332 310 329 30 5 341 240 116 79 50 14 356 355 359 2 11 24 27 27 10 356 357
336 335 335 337 338 339 341 340 334 315 209 186 192 200 201 229 265 202 197 238 282 207 292 288 270 300 320 324 311 288 271 273 258 229 220 221 219 222 240 274 283 292 297 293 6 332 287 284 306 303 325 9 357 326 321 335 323 308 313 344 341 1 26 14 337 320 296 330 20 3 343 311 333 27 49 33 358 348 343 337 336 344 14 35 22 3 355
337 338 343 352 359 6 17 33 61 82 99 132 155 169 176 201 260 209 195 221 0 228 310 264 278 312 317 319 330 330 289 282 294 207 198 207 209 208 24 30 14 349 2 8 344 334 346 353 337 334 3 1 330 317 327 324 308 290 301 1 1 13 21 2 340 321 306 344 5 356 337 307 305 315 337 359 355 344 333 328 329 329 337 15 22 359 354
340 347 2 18 30 41 54 68 82 86 90 111 126 123 127 159 264 217 195 219 288 248 296 265 275 309 309 313 350 13 25 18 25 60 88 71 64 60 49 46 37 8 17 22 355 354 5 344 327 342 15 350 316 322 321 310 312 311 320 350 11 22 5 348 335 299 291 305 323 325 309 289 288 295 308 321 334 340 325 315 316 315 315 341 18 4 359
351 7 28 50 61 67 72 73 81 88 90 103 113 98 87 73 353 190 193 244 279 278 307 288 283 313 310 305 348 21 34 34 40 56 61 58 61 61 53 50 38 10 16 46 29 11 338 325 327 344 354 336 305 306 323 340 334 305 304 332 347 345 331 322 307 287 283 288 298 299 288 279 278 285 294 300 310 321 306 298 297 301 309 340 17 7 354
8 27 56 83 82 78 77 68 60 62 57 47 272 1 55 52 357 212 207 241 272 274 318 314 297 309 310 314 359 19 25 33 47 57 61 65 68 65 67 75 48 16 40 58 37 20 308 330 335 328 334 341 334 313 338 343 317 272 318 339 334 326 322 315 302 291 285 281 282 279 271 269 274 281 283 284 288 286 278 280 290 298 307 336 1 359 351
39 62 88 99 89 82 78 56 38 34 23 338 272 295 37 337 261 203 204 232 258 236 234 288 278 294 312 348 22 9 5 22 41 45 45 52 51 52 63 74 54 31 55 66 21 32 0 328 317 309 325 340 350 350 337 334 319 315 334 336 328 321 319 312 301 292 285 281 279 274 267 263 262 268 272 268 258 250 244 252 288 317 341 340 332 336 330
97 97 106 107 99 103 90 45 44 56 56 58 78 90 105 153 164 162 178 207 228 207 337 310 294 318 333 335 353 351 357 18 34 26 20 23 27 36 45 52 67 43 37 61 71 33 336 295 295 295 304 327 344 353 345 341 331 324 326 326 320 315 312 305 300 295 287 281 278 276 273 262 227 225 251 258 238 229 234 256 283 308 338 336 322 324 318
144 120 124 127 118 116 337 352 49 66 66 76 84 89 109 135 153 164 165 182 239 245 271 319 316 309 296 264 318 347 355 2 2 17 22 7 356 23 29 27 47 18 11 35 85 294 267 223 268 283 270 323 349 358 349 339 328 320 318 315 312 310 304 298 296 293 284 272 254 251 262 263 230 212 245 269 277 274 274 277 275 283 303 309 301 311 315
181 150 148 163 176 219 293 306 306 304 296 237 127 110 118 132 157 180 190 300 324 284 285 45 94 311 309 301 330 342 356 15 355 2 17 354 351 21 15 341 2 21 4 3 119 308 293 240 289 318 308 305 331 106 357 329 323 319 314 310 312 315 312 310 311 307 297 282 253 239 250 261 262 251 249 254 264 267 264 262 262 259 257 253 245 254 269
216 200 194 199 217 245 275 294 298 295 281 237 195 166 152 136 116 153 233 300 358 32 300 348 113 316 336 359 333 323 352 54 354 342 29 348 342 2 40 7 12 16 328 319 10 14 348 340 352 352 326 315 345 63 330 316 322 331 335 331 331 330 326 324 323 317 306 292 268 250 248 251 252 251 246 237 240 245 246 245 245 244 240 228 220 224 222
261 236 229 236 261 272 278 286 286 269 238 214 187 164 156 112 84 89 75 350 77 143 271 354 37 290 347 0 290 304 341 11 290 326 45 1 331 348 34 48 26 345 308 339 356 356 348 348 353 346 342 354 10 334 296 307 328 343 346 343 342 341 334 330 325 317 312 308 289 257 237 236 245 246 239 232 234 236 238 238 234 236 238 226 213 214 209
312 272 246 250 276 288 283 269 225 197 214 219 155 133 121 99 85 70 56 71 103 227 185 79 286 249 180 129 261 291 337 331 263 17 4 290 272 337 7 55 63 245 329 358 355 354 5 15 24 5 343 338 312 284 288 311 338 347 345 341 344 346 341 337 335 333 336 345 341 304 244 238 250 246 229 235 237 228 231 237 231 225 230 228 217 207 198
335 302 258 259 302 321 281 221 198 187 189 147 127 123 115 108 103 17 0 67 111 262 140 115 258 246 133 98 277 257 271 296 321 54 1 278 337 356 353 51 167 202 348 341 316 112 51 33 56 39 322 308 301 295 298 313 329 338 342 341 343 346 346 345 347 349 354 358 353 339 305 264 261 255 236 234 233 224 231 241 234 222 225 222 208 193 183
342 320 250 203 209 257 234 165 158 150 135 113 124 138 119 63 66 353 311 85 61 291 179 180 239 217 155 140 296 283 134 37 347 342 295 288 44 77 27 294 221 133 31 342 225 126 57 4 30 41 341 330 333 334 328 322 323 334 344 346 345 347 349 348 351 356 0 360 353 350 353 345 315 292 262 238 233 231 235 236 232 229 225 214 202 192 176
306 285 237 192 219 254 205 155 155 153 135 89 15 44 73 89 133 190 221 348 341 275 208 210 248 223 163 144 200 271 198 75 334 298 268 261 245 150 124 323 287 81 38 326 244 129 81 4 0 12 352 337 330 327 327 329 332 339 347 349 349 350 350 350 353 358 2 3 0 360 5 9 7 2 352 325 278 249 237 232 230 229 221 209 200 184 169
278 252 234 273 306 294 176 162 172 186 180 107 2 1 44 237 247 202 118 25 318 265 218 168 297 283 229 138 162 227 255 111 322 277 262 271 293 85 96 309 22 75 31 273 243 113 82 50 8 348 332 322 318 320 328 338 340 345 352 353 351 354 356 357 358 1 3 6 6 6 9 12 14 12 4 355 344 313 271 248 227 213 204 200 190 173 166
275 262 262 276 282 245 193 180 192 208 178 60 348 320 309 302 345 346 16 149 267 262 233 171 210 224 192 140 158 212 221 183 160 107 1 286 305 89 134 242 59 71 250 249 209 81 54 14 352 328 318 315 315 324 338 343 337 345 354 354 352 356 0 2 3 3 5 7 9 9 11 13 14 12 8 5 5 7 7 5 0 354 179 190 189 183 176
284 261 255 265 260 200 188 241 231 157 86 49 40 7 350 343 332 311 286 256 247 254 244 244 249 179 123 128 143 191 207 193 153 106 149 249 174 73 57 30 58 71 249 250 67 61 32 0 356 333 321 317 318 328 340 339 331 341 355 356 357 2 5 9 10 7 7 9 11 13 16 17 17 16 15 14 14 16 17 20 30 42 49 58 76 114 136
304 243 195 204 235 172 155 296 279 103 35 4 57 51 2 337 323 329 324 298 254 249 239 222 176 101 186 225 194 123 179 217 84 89 216 233 206 73 69 67 258 251 295 28 45 57 60 30 358 330 323 322 322 328 336 338 337 346 356 359 3 7 9 13 15 12 10 10 11 14 18 21 20 19 19 18 18 20 18 21 39 56 63 62 55 53 77
163 0 42 27 326 325 75 350 320 29 30 353 1 68 358 318 304 317 313 230 197 250 269 224 169 161 211 235 204 124 179 139 93 119 216 198 31 21 62 179 260 62 67 35 352 37 45 6 338 328 326 322 321 326 333 337 341 351 3 6 9 11 12 14 17 17 15 12 12 15 19 21 21 21 21 21 24 27 25 22 37 58 67 66 59 52 58
186 251 93 81 304 284 103 34 351 15 21 326 351 20 353 306 278 283 283 225 228 289 289 247 179 171 197 216 198 33 140 125 114 252 207 120 76 27 77 67 33 32 34 355 350 25 8 325 318 326 321 316 320 330 335 336 341 358 18 19 13 13 15 17 21 24 21 18 18 19 20 22 22 22 24 25 28 30 29 28 38 55 64 64 62 61 61
277 297 91 88 305 298 45 55 11 88 161 191 35 17 348 314 296 301 300 288 296 307 308 296 151 160 190 175 127 67 198 141 104 336 10 81 73 24 55 57 38 20 357 338 341 349 311 306 314 319 315 317 331 341 342 341 344 357 20 28 19 17 19 21 25 27 25 25 25 23 21 22 24 24 27 30 32 32 31 31 38 51 60 62 61 61 61
250 1 97 130 236 282 349 352 1 45 40 58 51 20 355 351 346 324 305 298 319 331 333 349 33 21 327 339 74 76 254 81 50 351 347 33 42 18 27 32 10 352 4 344 321 294 293 303 304 303 312 333 345 344 342 343 344 352 12 31 26 22 27 29 29 29 29 31 32 28 24 24 25 26 31 35 36 36 36 36 39 46 56 61 61 59 57
235 97 119 172 205 223 207 155 99 40 342 340 27 28 10 357 332 308 304 320 337 329 315 335 50 51 328 324 37 49 11 15 38 10 4 30 34 14 17 25 337 326 338 330 312 324 321 299 292 303 328 348 349 343 341 343 343 348 4 23 29 32 37 39 39 37 36 37 41 41 36 32 28 29 32 35 37 40 42 43 43 45 51 58 62 59 56
319 98 173 206 6 308 274 76 65 21 326 330 0 12 359 342 318 303 312 334 338 335 343 4 31 43 3 3 38 39 3 13 65 60 45 44 29 348 10 45 342 301 299 298 306 321 302 288 294 327 343 347 348 345 341 340 341 346 356 8 26 45 49 48 50 50 46 45 51 55 51 43 37 34 34 35 40 46 48 48 48 49 50 55 61 62 58
343 356 251 232 214 212 198 118 96 127 278 310 315 311 342 351 313 296 303 337 13 21 12 350 340 39 39 25 21 19 13 48 68 69 64 66 73 71 88 235 248 248 253 267 279 268 269 288 329 352 337 335 345 349 343 341 345 349 353 0 16 46 58 52 52 56 56 53 54 58 58 54 50 49 50 49 50 52 52 50 52 55 55 57 61 65 65
27 334 302 288 254 157 132 119 127 171 192 211 247 265 49 27 290 294 324 35 63 50 353 324 15 63 55 24 343 15 30 42 49 50 40 1 69 153 183 211 232 231 225 240 254 245 247 280 328 336 319 320 333 345 349 350 353 356 357 358 7 34 60 58 50 52 55 53 53 59 66 68 65 64 62 58 55 55 54 52 55 60 64 65 66 68 69
Height
853 851 849 847 844 842 840 837 835 832 829 826 824 822 820 819 813 798 792 794 787 784 791 795 793 792 789 783 778 774 773 772 772 771 771 772 773 776 779 779 781 783 782 781 780 777 778 782 784 783 780 776 772 768 767 767 765 762 759 754 747 743 746 749 740 717 689 667 655 648 644 646 655 660 658 661 667 668 675 687 689 694 700 695 705 716 686
853 851 849 846 844 842 839 837 835 832 830 828 826 824 821 819 814 802 798 796 790 793 802 805 802 798 792 788 785 780 776 774 776 776 774 774 775 779 780 780 781 782 780 780 782 780 781 784 783 782 782 777 771 770 770 770 768 765 762 756 752 751 753 758 755 730 695 676 671 664 654 651 655 657 654 655 658 661 667 673 680 692 694 692 706 714 683
852 849 848 845 843 841 838 837 834 832 831 829 826 825 821 818 814 806 801 799 796 801 807 808 807 803 798 796 793 789 784 779 778 777 775 774 776 779 780 780 780 779 779 782 783 781 783 785 784 782 781 777 772 771 771 770 769 764 758 752 751 755 756 759 763 748 719 701 693 683 675 666 655 648 650 651 653 659 668 676 687 695 690 686 695 697 675
850 848 847 845 843 841 838 836 834 832 831 828 827 825 821 819 817 812 808 803 802 805 807 808 809 806 806 804 798 796 793 784 778 778 778 778 777 778 778 778 780 780 781 784 785 781 779 781 783 781 781 778 774 772 771 770 766 760 754 749 749 754 754 753 758 751 733 719 703 687 686 688 671 651 646 650 652 655 663 676 687 688 685 688 685 676 670
849 847 846 844 842 840 838 836 834 832 831 829 827 825 822 821 820 819 819 813 809 809 808 810 813 810 809 809 803 800 797 789 783 781 782 782 780 779 779 779 782 784 783 785 786 782 778 778 779 779 779 777 774 771 769 767 762 757 754 752 751 756 756 749 747 741 730 721 707 692 690 691 678 658 648 647 650 654 661 671 676 674 683 693 678 665 672
848 846 845 843 841 839 837 836 834 832 831 829 828 826 823 822 821 822 825 823 821 820 815 814 815 811 808 808 804 801 798 794 791 786 782 782 782 783 783 782 783 783 783 785 785 783 782 779 776 777 777 775 774 773 768 763 760 758 759 755 752 758 758 746 740 736 725 713 702 692 686 679 667 655 645 641 646 653 659 664 664 664 674 680 668 663 671
847 845 843 841 840 838 836 835 834 832 831 829 829 829 825 824 824 823 824 826 827 827 822 817 816 811 808 808 805 802 801 800 796 790 787 786 784 784 786 785 783 782 781 783 785 785 785 783 777 774 774 773 774 777 773 765 761 762 764 757 752 756 754 742 739 736 720 704 692 681 674 666 656 645 636 636 642 647 651 657 659 658 658 657 657 663 663
845 843 842 840 838 837 835 834 833 831 830 829 828 829 827 826 827 825 826 828 826 824 822 818 817 813 810 809 806 803 803 803 799 793 793 793 788 785 787 786 783 781 780 782 783 781 781 781 775 770 770 770 773 778 778 771 767 766 765 759 754 756 752 742 741 738 718 697 684 676 669 663 654 643 632 631 637 644 650 653 655 658 655 652 657 664 659
843 841 840 838 836 835 834 833 832 830 830 828 827 827 826 826 826 825 828 828 823 822 820 818 819 817 812 808 807 806 805 804 801 797 792 792 790 787 786 785 782 780 780 780 780 777 774 774 770 766 766 765 766 770 771 771 772 771 768 763 757 756 754 744 744 746 724 696 688 686 671 655 653 656 652 642 637 642 647 647 652 659 657 656 663 666 659
841 839 838 836 834 834 832 831 830 829 829 827 826 825 824 824 824 824 827 827 822 820 820 819 819 817 811 807 808 808 806 802 803 803 794 788 788 786 783 783 781 781 781 778 776 773 770 767 765 762 760 758 757 760 762 764 769 771 771 767 759 755 756 749 749 751 728 701 698 694 675 666 674 681 677 660 642 637 645 655 665 668 662 663 664 658 652
839 837 835 834 832 831 830 829 828 827 827 826 825 824 823 824 823 823 825 826 821 818 819 819 818 814 808 807 808 808 806 802 804 808 802 791 786 783 780 781 781 781 779 774 770 768 764 761 759 756 755 754 752 753 755 757 760 763 766 767 760 754 754 752 752 751 733 712 704 694 686 691 692 681 675 669 655 652 665 679 683 676 670 668 660 649 647
836 835 833 831 830 829 827 827 826 825 825 824 824 823 821 822 822 821 824 824 819 817 818 817 815 812 809 809 809 806 805 803 802 803 801 793 785 781 780 780 782 780 774 768 766 765 762 759 757 753 751 751 748 747 750 752 753 754 758 762 760 755 754 752 749 746 736 721 710 703 702 699 685 671 670 670 662 660 668 679 682 679 676 672 663 655 653
834 833 831 829 828 827 825 824 823 823 823 822 821 820 819 819 819 819 821 822 819 817 817 814 812 811 810 809 808 804 801 801 799 797 796 791 786 783 779 778 779 775 769 766 765 765 764 761 758 755 751 748 746 746 745 746 748 749 751 755 755 753 752 750 747 741 733 728 725 718 704 686 675 673 671 668 667 666 671 682 690 685 680 677 673 665 658
832 830 829 827 826 824 823 822 821 820 820 819 819 818 817 817 817 817 818 819 817 814 815 814 811 809 808 806 805 803 801 800 799 798 795 792 788 783 779 777 775 770 767 767 766 766 766 764 761 760 755 750 751 750 744 742 743 743 746 747 746 747 749 749 746 736 728 733 734 719 699 688 688 689 685 683 688 685 684 695 700 689 681 682 679 670 664
830 828 827 825 823 822 821 820 819 818 817 817 816 815 815 814 814 815 815 816 816 813 813 813 809 806 807 806 804 805 805 803 802 799 795 791 787 783 779 775 772 768 766 767 769 769 768 766 768 769 762 755 757 755 746 740 736 734 737 741 740 741 744 745 745 737 728 734 736 722 710 709 709 705 693 686 688 686 681 692 701 693 685 682 679 675 671
827 826 824 823 821 820 819 817 816 816 815 814 813 812 812 812 812 813 812 814 816 813 808 806 805 806 807 806 805 806 805 804 804 801 797 793 788 783 779 775 772 770 769 770 773 773 771 771 774 773 766 760 761 757 749 744 738 730 729 734 736 736 738 740 744 742 736 737 737 730 727 725 717 707 691 678 679 677 673 688 706 702 690 684 682 681 677
825 823 822 821 819 818 816 815 814 813 812 811 811 810 809 809 810 811 810 812 814 810 804 802 804 807 808 807 805 805 803 803 804 804 801 796 790 784 779 776 773 771 770 773 778 778 778 777 775 772 768 763 760 756 751 751 748 739 733 736 738 738 738 739 743 743 738 735 732 729 731 729 717 704 692 680 671 665 674 704 720 709 696 691 687 684 682
823 821 820 818 817 815 814 813 811 811 810 809 809 808 807 807 808 808 808 810 812 808 802 800 803 805 805 805 804 802 801 801 803 804 802 796 791 787 782 779 778 774 772 775 781 783 781 779 777 774 768 760 756 757 756 755 753 747 740 740 742 742 740 739 741 740 735 732 729 726 730 729 716 703 693 678 666 672 697 723 723 709 702 698 690 687 686
821 819 818 816 815 813 812 810 809 808 807 807 807 806 806 805 806 807 807 808 809 806 801 799 801 802 801 801 801 800 799 800 801 802 802 798 792 786 782 781 781 779 777 778 782 784 782 778 776 775 771 763 759 760 760 757 752 748 743 743 746 750 747 742 740 738 732 727 726 727 730 726 716 705 691 674 677 701 721 722 715 712 708 700 693 690 687
819 817 816 814 813 811 809 808 807 806 805 805 805 804 804 804 804 805 805 805 806 804 800 798 799 799 798 798 800 799 799 800 800 801 801 799 791 786 788 788 784 782 783 784 784 785 784 782 779 777 774 770 763 759 761 759 751 747 746 745 746 750 752 751 746 738 732 731 733 737 739 729 717 710 701 692 702 722 724 715 714 716 709 701 698 695 690
817 815 814 812 810 809 808 806 805 805 804 804 804 803 803 803 803 803 803 804 805 803 799 796 796 796 796 796 796 796 796 796 796 796 797 795 790 789 794 793 788 787 789 789 788 786 785 784 781 778 774 770 764 762 764 762 754 747 743 743 743 745 752 757 751 741 740 744 743 740 738 730 722 721 721 717 717 720 718 716 719 719 712 707 703 699 696
815 813 812 810 808 807 806 804 803 803 802 802 802 802 802 802 801 802 802 802 803 802 798 795 794 794 793 792 791 791 790 789 790 791 793 792 789 788 789 788 786 786 788 789 788 786 784 783 782 779 774 769 766 764 762 761 759 752 744 744 747 746 746 749 747 740 742 745 740 732 729 728 727 728 727 723 717 716 717 718 720 722 720 713 707 704 701
813 811 810 808 806 805 804 802 802 801 801 801 801 800 801 801 800 801 801 801 802 800 796 794 794 791 788 786 785 785 784 785 786 787 788 790 789 787 786 784 783 783 784 785 785 782 782 782 779 777 774 767 764 764 761 759 760 757 749 747 747 742 738 740 742 741 739 738 735 731 729 729 730 729 727 724 719 717 718 719 722 726 724 717 712 708 704
811 810 808 806 805 803 802 801 800 799 799 799 799 799 800 800 800 800 800 801 802 801 797 794 792 789 785 782 781 781 781 781 782 781 783 787 789 787 784 782 781 780 780 780 778 777 779 778 774 773 772 765 762 765 766 763 760 758 755 752 748 741 738 742 746 745 743 741 739 736 734 732 731 731 730 728 723 719 718 720 724 726 723 717 713 710 706
810 808 806 805 803 802 800 799 799 798 798 798 798 799 799 799 799 800 800 801 802 802 801 797 790 784 782 780 779 779 778 776 776 778 780 782 783 783 781 779 778 778 776 774 774 776 778 776 773 772 770 767 766 767 766 764 761 758 758 759 754 746 744 748 752 749 744 742 741 738 734 731 729 731 733 732 728 724 720 719 720 722 721 717 714 711 709
808 806 805 803 801 800 799 798 797 797 797 798 798 798 799 799 799 799 800 800 800 800 802 799 788 780 780 780 777 775 774 774 773 774 776 777 778 779 778 777 777 777 774 773 773 774 775 774 774 773 772 771 772 770 765 764 761 758 758 758 754 750 753 757 759 754 745 742 741 740 735 728 725 727 731 732 730 727 724 720 718 718 718 718 717 715 712
807 805 803 802 801 800 799 798 797 797 797 798 798 798 799 799 799 799 799 800 801 801 802 799 790 782 779 778 775 773 772 772 772 772 774 776 777 778 778 778 778 777 776 775 774 773 774 776 776 775 774 774 774 771 767 765 762 759 759 757 753 757 763 765 765 762 754 748 747 747 744 738 731 728 729 729 729 729 727 724 719 716 715 717 719 718 715
805 804 803 802 801 800 800 799 799 798 798 799 799 799 799 799 799 799 799 800 801 802 802 799 792 786 781 778 775 774 773 773 773 772 774 775 776 778 778 778 779 779 778 779 779 778 779 780 778 776 776 777 777 774 770 768 766 764 762 759 758 763 768 768 768 767 759 752 749 748 747 744 737 730 729 729 728 729 729 726 723 718 714 713 715 717 715
805 804 803 802 802 802 801 800 800 799 800 800 799 799 799 799 799 799 799 800 800 801 801 798 793 787 783 780 777 776 776 776 775 774 776 777 777 778 779 780 781 781 780 781 783 783 783 781 779 778 777 778 779 777 773 772 774 770 764 760 761 763 763 763 765 763 757 752 750 748 745 742 737 732 730 728 727 728 728 725 722 719 715 712 712 713 713
804 804 803 802 802 802 802 801 801 800 800 801 800 800 800 800 799 799 799 800 800 800 801 801 796 788 783 781 779 778 777 777 777 777 777 778 778 778 779 780 782 782 782 783 785 786 786 784 781 779 776 774 777 779 776 774 774 768 762 761 761 759 756 756 756 755 752 749 747 745 741 736 733 731 729 727 727 727 725 722 720 719 716 714 712 711 712
804 804 803 803 803 803 802 802 802 801 800 800 800 800 801 800 800 799 799 800 800 799 801 801 797 790 785 782 781 780 779 778 777 778 779 779 779 779 780 781 782 782 784 786 786 786 788 788 786 783 778 775 777 779 777 776 774 767 761 762 761 757 753 750 747 746 745 742 741 739 733 729 730 730 726 723 724 723 721 719 718 717 716 716 715 714 713
804 804 803 803 803 803 803 802 801 801 801 800 799 799 799 799 799 799 799 799 799 799 800 801 797 792 789 786 783 781 781 780 779 779 780 780 780 781 781 781 783 783 783 785 788 789 789 789 788 786 782 778 779 780 780 780 779 773 766 763 760 756 753 747 741 738 736 734 735 734 725 719 723 725 721 718 720 720 718 718 717 716 715 716 716 717 715
804 804 803 803 803 803 803 802 802 801 801 800 800 800 799 799 799 799 799 799 799 798 800 801 799 795 790 786 784 782 782 781 781 781 782 782 781 782 783 783 783 783 783 785 789 790 788 788 788 787 784 782 784 787 786 784 782 776 770 764 759 755 750 744 737 732 728 727 729 726 717 711 715 719 718 717 717 717 717 718 717 716 716 715 715 716 715
803 803 803 803 803 803 803 802 801 801 801 801 801 800 799 799 799 799 799 799 799 799 799 799 800 797 791 786 786 785 783 783 784 784 785 784 782 783 785 784 783 784 786 787 788 788 787 787 788 787 786 787 788 789 788 785 782 777 770 764 759 754 747 738 732 727 722 719 718 715 710 708 711 714 715 716 716 715 715 715 715 716 716 715 714 714 713
803 803 803 803 803 803 802 802 801 801 800 801 800 799 799 798 798 799 800 799 799 800 800 798 799 799 795 792 790 787 783 785 786 785 786 786 784 784 785 785 786 788 788 786 786 787 787 786 786 786 788 787 787 788 789 785 780 775 770 765 760 754 747 738 730 723 716 711 709 707 706 707 708 709 711 713 713 712 712 712 712 713 713 713 712 712 712
802 802 802 802 802 802 801 801 800 800 800 799 799 799 799 799 799 799 799 799 799 801 800 798 798 798 797 796 794 789 784 786 787 786 786 787 786 785 786 786 788 791 790 788 788 789 789 787 786 788 789 788 787 787 786 781 776 772 768 764 761 757 752 744 734 725 714 706 701 701 703 704 704 705 708 710 709 708 709 709 708 709 709 709 709 709 709
802 802 801 801 801 801 801 800 799 799 799 798 798 799 799 799 799 799 798 798 799 799 800 800 798 794 794 796 795 789 787 787 786 786 787 787 787 787 787 788 790 790 790 790 791 791 790 790 791 793 792 789 787 785 781 778 775 770 765 762 759 755 751 744 735 727 717 707 701 699 700 700 701 703 706 707 706 705 705 704 704 705 705 705 705 705 705
801 801 801 801 801 800 800 799 798 798 798 798 798 799 799 799 800 799 799 799 799 798 799 800 796 792 793 795 792 788 787 788 787 786 787 788 788 788 788 789 789 789 790 791 791 790 790 792 795 797 794 789 785 783 781 780 777 772 768 765 760 755 751 745 738 731 724 717 711 706 701 700 700 700 702 704 704 703 702 700 700 700 700 700 701 702 702
801 800 800 801 801 800 799 798 798 798 798 798 798 799 799 800 800 799 798 798 798 797 798 797 793 790 792 793 791 788 787 788 788 788 787 787 787 788 789 789 787 786 790 792 791 790 792 793 795 797 795 791 786 784 782 781 779 775 771 768 764 759 754 748 743 737 732 727 722 715 708 704 702 700 700 701 700 699 699 698 697 697 697 697 698 699 699
800 800 799 799 799 798 798 798 799 798 798 799 799 799 800 800 799 797 796 796 796 795 794 793 789 787 788 791 792 790 787 787 789 789 788 787 786 786 788 788 786 787 792 793 789 789 793 795 797 798 797 794 789 785 782 781 780 776 772 769 766 762 757 752 746 741 734 729 724 718 712 708 705 702 700 698 697 696 696 695 694 695 695 695 695 696 697
799 799 799 798 798 797 797 798 798 798 799 799 799 798 798 797 795 793 794 795 795 792 789 788 788 788 787 789 791 791 788 787 787 788 788 787 786 785 787 788 787 789 792 791 787 787 792 797 800 801 799 794 789 784 781 780 779 776 772 770 766 762 758 754 749 743 737 732 726 721 716 712 708 705 702 699 696 694 693 692 692 692 693 693 694 694 695
798 798 797 797 797 797 797 798 798 798 798 797 797 795 794 793 793 793 793 793 792 790 787 787 787 787 786 787 788 788 787 785 785 787 789 787 785 786 787 786 786 789 790 786 784 788 793 798 802 802 797 792 788 784 781 779 778 776 773 770 767 763 760 756 751 746 741 736 731 726 721 716 711 708 705 701 698 695 693 692 691 692 692 692 693 694 695
796 795 796 797 797 796 797 797 796 796 796 796 796 797 795 793 793 793 792 791 790 789 787 784 783 784 785 785 784 785 786 785 784 787 788 786 785 786 786 784 785 787 786 783 785 792 798 801 803 801 796 791 788 784 781 779 777 775 773 770 768 765 761 757 754 750 745 740 736 732 727 722 717 713 709 706 702 699 696 695 694 693 692 692 693 694 695
795 794 796 797 796 795 797 796 793 793 796 796 796 798 799 797 795 793 791 789 789 787 783 782 782 783 784 784 783 784 785 784 785 787 787 785 783 783 784 785 785 784 784 787 790 794 798 801 801 798 795 792 788 784 781 779 777 775 774 771 769 766 763 759 756 753 749 745 741 737 732 728 724 720 716 713 709 705 702 700 698 696 695 695 696 698 698
795 795 796 798 796 795 797 796 792 792 796 796 794 796 798 797 795 792 788 786 785 782 780 780 782 783 783 782 782 783 784 785 786 786 784 782 782 782 782 783 783 783 788 794 796 796 799 802 800 797 795 792 789 785 782 779 777 776 774 772 770 767 765 762 759 756 754 750 746 742 738 735 731 728 724 721 716 712 709 707 704 700 698 699 700 702 703
795 793 795 799 798 794 794 796 796 795 796 795 794 795 794 792 791 788 784 781 781 780 778 777 779 781 782 781 781 781 782 784 784 782 780 780 783 782 780 781 785 790 794 797 799 801 805 805 800 796 795 792 789 786 783 780 778 776 775 774 772 770 767 765 762 760 758 755 752 748 745 742 739 736 732 728 723 719 717 715 711 707 704 705 707 709 710
795 792 793 799 799 793 792 795 796 795 793 792 792 792 790 788 787 784 781 780 779 777 775 773 774 776 777 777 778 781 782 781 781 780 777 778 781 780 780 785 794 800 802 802 803 806 807 803 798 796 794 791 788 786 784 780 778 777 775 775 774 771 770 768 765 763 761 759 756 754 751 748 745 743 739 735 732 729 726 724 720 716 713 713 715 716 717
793 792 794 798 798 794 793 794 793 791 791 791 789 788 788 787 786 784 782 779 777 776 775 773 773 775 775 774 775 778 779 780 782 782 779 779 783 786 789 796 802 803 803 805 805 805 803 801 798 796 793 790 789 787 785 782 779 777 776 776 775 773 771 770 768 766 765 762 760 758 756 753 751 749 746 743 740 738 735 733 730 727 724 722 722 723 725
791 791 793 794 793 790 790 790 790 791 792 790 788 788 788 788 787 785 782 779 777 777 775 772 773 776 778 776 776 778 780 782 785 786 786 789 793 795 798 804 808 806 804 804 804 802 801 799 797 795 792 790 789 787 785 783 780 778 776 776 776 774 773 772 770 769 767 765 764 762 761 758 756 754 751 749 747 745 743 741 739 736 734 732 730 731 734
790 791 792 792 792 791 789 789 791 794 794 792 790 789 789 789 787 784 781 780 778 777 775 774 775 777 778 779 781 784 785 784 786 791 795 798 800 799 801 807 811 808 805 803 802 801 800 798 796 794 793 791 789 788 786 784 781 779 777 777 776 775 774 773 772 771 770 768 767 766 764 762 761 759 757 755 754 752 749 748 745 744 743 741 739 739 741
792 792 791 790 790 791 790 790 793 794 794 793 792 790 788 788 788 784 781 780 779 780 781 780 779 780 783 786 788 789 786 784 788 795 800 800 800 802 807 810 808 804 802 801 800 800 799 797 795 794 793 791 789 788 786 784 782 780 778 777 776 776 774 773 772 772 771 770 769 768 766 766 765 764 762 761 759 756 754 753 752 751 750 749 747 747 748
794 793 791 788 788 788 787 788 791 792 791 791 790 788 787 787 786 783 781 780 781 783 784 783 782 785 789 790 788 787 787 789 793 798 801 799 798 800 804 804 801 799 799 799 798 798 797 796 794 794 793 792 790 789 787 785 783 782 779 778 777 776 775 774 774 773 773 772 771 770 768 768 767 767 765 764 763 760 759 759 758 757 756 755 754 754 753